Sigfox identifier Datetime Temperature Humidity SNR
00388C60 2018-10-09 09:21:04 21.1 40 17.8
00388C60 2018-10-09 08:14:37 21.1 39 17.9
00388C60 2018-10-09 07:08:15 21.2 39 18
00388C60 2018-10-09 06:01:53 21.1 39 18.6
00388C60 2018-10-09 04:55:34 21.1 38 18.9
00388C60 2018-10-09 01:36:20 21.1 37 19.5
00388C60 2018-10-09 00:29:56 21 37 19.9
00388C60 2018-10-08 23:23:34 21.2 37 20.1
00388C60 2018-10-08 22:17:14 21.2 37 20.4
00388C60 2018-10-08 21:10:53 21.1 36 20.6
00388C60 2018-10-08 20:04:27 21.1 36 21
00388C60 2018-10-08 18:58:02 21 36 21.2
00388C60 2018-10-08 17:51:36 21 36 21.5
00388C60 2018-10-08 15:38:42 20.9 35 21.8
00388C60 2018-10-08 14:32:14 20.8 35 21.8
00388C60 2018-10-08 13:25:49 20.7 35 22
00388C60 2018-10-08 12:19:22 20.7 35 22.3
00388C60 2018-10-08 11:12:57 20.5 32 22.5
00388C60 2018-10-08 10:06:33 20.3 30 22.7
00388C60 2018-10-08 09:00:08 20.3 29 22.8
00388C60 2018-10-08 07:53:43 20.3 31 23.1
00388C60 2018-10-08 06:47:19 20.3 32 23.2
00388C60 2018-10-08 05:40:56 20.3 33 23
00388C60 2018-10-08 04:34:30 20.3 33 22.8
00388C60 2018-10-08 03:28:05 20.3 34 23
00388C60 2018-10-08 02:21:42 20.3 34 23.1
00388C60 2018-10-08 01:15:17 20.3 35 23
00388C60 2018-10-08 00:08:50 20.5 35 23
00388C60 2018-10-07 23:02:22 20.5 36 23.1
00388C60 2018-10-07 21:55:56 20.5 37 23.2
00388C60 2018-10-07 20:49:29 20.5 37 23.2
00388C60 2018-10-07 19:43:03 20.5 38 23.3
00388C60 2018-10-07 18:36:39 20.5 38 23.3
00388C60 2018-10-07 17:30:15 20.5 38 23.3
00388C60 2018-10-07 16:23:52 20.5 37 23.3
00388C60 2018-10-07 15:17:28 20.5 37 23.2
00388C60 2018-10-07 14:11:03 20.5 37 23.2
00388C60 2018-10-07 13:04:39 20.5 37 23
00388C60 2018-10-07 11:58:14 20.5 37 22.9
00388C60 2018-10-07 10:51:49 20.5 37 23
00388C60 2018-10-07 09:45:20 20.5 38 23
00388C60 2018-10-07 08:38:55 20.5 38 22.9
00388C60 2018-10-07 07:32:29 20.6 38 22.8
00388C60 2018-10-07 06:26:03 20.5 38 22.6
00388C60 2018-10-07 05:19:38 20.7 38 23.4
00388C60 2018-10-07 04:13:09 20.7 39 23.3
00388C60 2018-10-07 03:06:43 20.7 39 23.2
00388C60 2018-10-07 02:00:17 20.7 39 23.3
00388C60 2018-10-07 00:53:51 20.7 39 23.3
00388C60 2018-10-06 23:47:24 20.7 39 23.2
00388C60 2018-10-06 22:40:58 20.7 39 23.3
00388C60 2018-10-06 21:34:32 20.7 39 23.2
00388C60 2018-10-06 20:28:06 20.7 39 23.1
00388C60 2018-10-06 19:21:41 20.8 39 23.1
00388C60 2018-10-06 18:15:16 20.8 39 23
00388C60 2018-10-06 17:08:48 20.8 39 22.9
00388C60 2018-10-06 16:02:22 20.8 39 22.7
00388C60 2018-10-06 14:55:55 20.9 39 22.8
00388C60 2018-10-06 13:49:27 20.8 39 22.6
00388C60 2018-10-06 12:42:59 20.7 39 22.6
00388C60 2018-10-06 11:36:32 20.8 39 22.7
00388C60 2018-10-06 10:30:05 21 39 22.6
00388C60 2018-10-06 09:23:38 20.9 39 22.8
00388C60 2018-10-06 08:17:14 20.9 39 22.7
00388C60 2018-10-06 07:10:48 21 39 22.8
00388C60 2018-10-06 06:04:18 21 40 22.7
00388C60 2018-10-06 04:57:51 21 40 22.6
00388C60 2018-10-06 03:51:25 21 40 22.7
00388C60 2018-10-06 02:44:56 21.2 41 22.9
00388C60 2018-10-06 01:38:30 21.2 41 22.1
00388C60 2018-10-06 00:31:59 21.2 41 21.9
00388C60 2018-10-05 23:25:31 21.2 42 22
00388C60 2018-10-05 22:19:05 21.2 43 22
00388C60 2018-10-05 21:12:38 21.4 43 22
00388C60 2018-10-05 20:06:09 21.4 44 21.8
00388C60 2018-10-05 18:59:42 21.4 45 21.9
00388C60 2018-10-05 17:53:14 21.5 45 21.8
00388C60 2018-10-05 16:46:44 21.6 46 21.9
00388C60 2018-10-05 15:40:14 21.4 47 21.7
00388C60 2018-10-05 14:33:47 21.4 47 21.5
00388C60 2018-10-05 13:27:19 21.2 47 21.7
00388C60 2018-10-05 12:20:51 21.2 48 21.7
00388C60 2018-10-05 11:14:25 21 46 21.5
00388C60 2018-10-05 10:08:00 20.7 40 21.7
00388C60 2018-10-05 09:01:30 20.7 38 21.8
00388C60 2018-10-05 07:55:05 20.7 34 21.5
00388C60 2018-10-05 06:48:38 20.7 34 21.7
00388C60 2018-10-05 05:42:12 20.7 34 21.4
00388C60 2018-10-05 04:35:44 20.7 34 21.7
00388C60 2018-10-05 03:29:16 20.9 34 21.5
00388C60 2018-10-05 02:22:49 21 34 21.8
00388C60 2018-10-05 01:16:23 21 33 21.8
00388C60 2018-10-05 00:09:55 21.1 33 21.8
00388C60 2018-10-04 23:03:29 21.2 33 21.6
00388C60 2018-10-04 21:57:04 21.2 33 21.6
00388C60 2018-10-04 20:50:34 21.2 33 22
00388C60 2018-10-04 19:44:04 21.2 32 21.9
00388C60 2018-10-04 18:37:36 21.2 31 21.8
00388C60 2018-10-04 17:31:06 21.2 31 21.9
00388C60 2018-10-04 16:24:38 21 31 21.9
00388C60 2018-10-04 15:18:08 20.7 31 21.6
00388C60 2018-10-04 14:11:42 20.7 32 21.6
00388C60 2018-10-04 13:05:17 20.7 32 21.5
00388C60 2018-10-04 11:58:47 20.6 33 21.6
00388C60 2018-10-04 10:52:21 20.5 33 21.7
00388C60 2018-10-04 09:45:53 20.3 34 21.6
00388C60 2018-10-04 08:39:26 20.3 34 21.5
00388C60 2018-10-04 07:32:58 20.5 37 21.5
00388C60 2018-10-04 06:26:31 20.5 40 21.4
00388C60 2018-10-04 05:20:03 20.5 40 21.1
00388C60 2018-10-04 04:13:34 20.5 41 21.3
00388C60 2018-10-04 03:07:05 20.5 41 22.2
00388C60 2018-10-04 02:00:37 20.6 41 22.2
00388C60 2018-10-04 00:54:06 20.6 42 22.1
00388C60 2018-10-03 23:47:36 20.7 42 22
00388C60 2018-10-03 22:41:08 20.7 42 21.7
00388C60 2018-10-03 21:34:42 20.7 42 21.5
00388C60 2018-10-03 20:28:15 20.7 42 21.4
00388C60 2018-10-03 19:21:49 20.7 42 21.2
00388C60 2018-10-03 18:15:20 20.7 41 21.2
00388C60 2018-10-03 17:08:52 20.7 44 20.7
00388C60 2018-10-03 16:02:25 20.7 44 20.7
00388C60 2018-10-03 14:55:51 20.7 45 20.6
00388C60 2018-10-03 13:49:20 20.6 43 20.6
00388C60 2018-10-03 12:42:49 20.5 42 20.8
00388C60 2018-10-03 10:29:54 20.5 41 20.7
00388C60 2018-10-03 09:23:24 20.4 42 21
00388C60 2018-10-03 08:16:54 20.4 39 21.1
00388C60 2018-10-03 07:10:25 20.5 41 21.1
00388C60 2018-10-03 06:03:58 20.5 41 21.2
00388C60 2018-10-03 04:57:32 20.5 41 21.2
00388C60 2018-10-03 03:51:04 20.5 41 21.4
00388C60 2018-10-03 02:44:36 20.5 42 21.6
00388C60 2018-10-03 01:38:08 20.6 42 21.7
00388C60 2018-10-03 00:31:38 20.7 41 22.1
00388C60 2018-10-02 23:25:08 20.7 41 22.2
00388C60 2018-10-02 22:18:39 20.7 41 17.7
00388C60 2018-10-02 21:12:06 20.7 40 17.7
00388C60 2018-10-02 20:05:35 20.7 40 15.6
00388C60 2018-10-02 18:59:04 20.7 40 16.2
00388C60 2018-10-02 17:52:33 20.7 41 14.9
00388C60 2018-10-02 16:46:03 20.7 42 16
00388C60 2018-10-02 15:39:32 20.9 40 16.9
00388C60 2018-10-02 14:33:04 21.1 40 18.3
00388C60 2018-10-02 13:26:27 20.6 48 0